OPS 4682 DEB, 18534

Orbit data source: Space-Track

OPS 4682 DEB, 18534 is space debris in LEO originally from a launch on Sat, 03 Apr 1965 UTC launched from the Air Force Western Test Range (AFWTR). Debris objects in space refer to the collection of defunct objects orbiting the Earth. Examples of debris include non-operational satellites, rocket bodies, and fragments generated from explosions, collisions, or faulty payload assembly.

Loading next visibility...
Identifier
18534, 1965-027AE
Orbit
LEO
Country
Flag of USUS
Related business
Manufacturer
Unknown
Mission
Spacecraft
Bus & Motor
Unknown
Mass
Unknown
Launch date (UTC)
1965-04-03 (61 years ago)
Launch vehicle
Unknown
Launch site
Air Force Western Test Range (AFWTR)
Object type
Payload
Rocket body
Debris
Shape & HBR
Unknown shape, 0.1 m
Radar Cross Section
Small (<0.1 m²)

Expand to show TLE details & history
Last TLE update: 2 days ago

TLE from 2 days ago
0 OPS 4682 DEB
1 18534U 65027AE  25306.44143358  .00000450  00000-0  15546-2 0  9991
2 18534  90.2713  18.3543 0027598 349.9156  27.7082 12.96082800811627
Epoch: 2025-11-02T10:35Z
TLE epoch observation values (Epoch: 2025-11-02T10:35:39.861Z)
Latitude
17.76046°
Longitude
177.39464°
Altitude
1,261.097 km
Speed
7.235 km/s
True Right ascension
01h 13m 04s
True Declination
17° 40' 03"
Sunlit
Object was in full shadow at epoch
Visualization orbit readout
Latitude
Unknown
Longitude
Unknown
Altitude
Unknown
Speed
Unknown
Apparent Right ascension
Unknown
Apparent Declination
Unknown
Sunlit
N/A
Visualization observer readout
Local Sidereal Time
06:41:47
Azimuth
Unknown
Elevation
Unknown
Doppler factor
Unknown
Orbital elements
Apogee altitude
1,295.726 km
Perigee altitude
1,253.486 km
Semi-major axis
7,652.743 km
Eccentricity
0.00276
Inclination
90.2713°
RAAN
18.3543°
Arg. of periapsis
349.9156°
True anomaly
27.8557°
Mean anomaly
27.7082°
Eccentric anomaly
27.7819°
Mean motion
3.24203 °/min
Orbital period
111.04 mins
BSTAR
0.0015546
Loading maneuver chart data...
Computing Atmospheric mass density...
Loading historical data...
Loading historical data...
Loading historical data...
Loading historical data...
Loading historical data...
Loading historical data...
Loading historical data...

Documentation

Showing up to 5 results
|